Regional Weather Roundup
Issued by NWS Charleston, SC

Current Version | Previous Version | Graphics & Text | Print | Product List | Glossary On
Versions: 1 2 3 4 5 6 7 8 9 10 11 12 13 14 15 16 17 18 19 20 21 22 23 24 25 26 27 28 29 30 31 32 33 34 35 36 37 38 39 40 41 42 43 44 45 46 47 48 49 50
000
ASUS42 KCHS 301428
RWRCHS

REGIONAL WEATHER ROUNDUP
NATIONAL WEATHER SERVICE CHARLESTON SC
1000 AM EDT SAT APR 30 2016

NOTE: "FAIR" INDICATES FEW OR NO CLOUDS BELOW 12,000 FEET WITH NO
SIGNIFICANT WEATHER AND/OR OBSTRUCTIONS TO VISIBILITY.

NOT ALL STATIONS ARE QUALITY CONTROLLED. USE DATA WITH CAUTION...
ESPECIALLY DEWPOINT OBSERVATIONS.

SCZ027-030-031-034>040-042>050-301500-
...SOUTHEAST SOUTH CAROLINA...

CITY           SKY/WX    TMP DP  RH WIND       PRES   REMARKS
N CHARLESTON   MOSUNNY   79  69  71 S9        30.02S
WATERFRONT PRK   N/A     74  71  90 SE8       30.01R
MOUNT PLEASANT PTSUNNY   77  72  83 E7        30.05R
JOHNS ISLAND   PTSUNNY   79  73  83 SE10      30.04R
PINOPOLIS        N/A     75  72  88 E6        29.96R
MONCKS CORNER  PTSUNNY   73  70  88 SE8       30.03S
SUMMERVILLE    FAIR      77  70  78 CALM      30.03S
BEAUFORT MCAS  MOSUNNY   80  71  74 SE7       30.02S
BEAUFORT ARPT  FAIR      77  70  78 SE7       30.02S
HILTON HEAD IS PTSUNNY   81  72  74 SE5       30.04R
WALTERBORO     PTSUNNY   73  73 100 SE6       30.04R
ALLENDALE      FAIR      77  68  73 SE7       30.02S

...SOUTHERN MIDLANDS AND PEE DEE...

CITY           SKY/WX    TMP DP  RH WIND       PRES   REMARKS
GEORGETOWN     CLOUDY    72  68  88 E10       30.07R
KINGSTREE      CLOUDY    72  66  83 E8        30.06R
ORANGEBURG     MOSUNNY   75  67  76 S7        30.03R
BARNWELL       FAIR      79  72  78 S8        30.03R
AIKEN          FAIR      77  63  61 SE7       30.06R
MANNING        NOT AVBL
COLUMBIA       PTSUNNY   73  64  73 VRB6      30.02R
SUMTER         MOSUNNY   77  66  69 SE9       30.02R
FLORENCE       CLOUDY    70  66  87 SE8       30.07R
MYRTLE BEACH   CLOUDY    72  61  68 E17       30.10R
N MYRTLE BEACH CLOUDY    70  65  84 E14G21    30.07S

$$

GAZ063-065-086>088-099>101-113>116-118-119-134>141-150-301500-
...SOUTHEAST GEORGIA...

CITY           SKY/WX    TMP DP  RH WIND       PRES   REMARKS
SAVANNAH ARPT  PTSUNNY   79  67  66 S12       30.01S
HUNTER AAF     SUNNY     80  71  75 S8        29.99R
FORT STEWART   MOSUNNY   77  73  88 SE6       29.98S HAZE
STATESBORO     MOSUNNY   80  73  81 S3        30.02R
SYLVANIA       PTSUNNY   77  73  85 SE7       30.04R FOG
CLAXTON        FAIR      80  72  76 CALM      30.01R

...CSRA...CENTRAL AND FAR SOUTHEAST GEORGIA...

CITY           SKY/WX    TMP DP  RH WIND       PRES   REMARKS
THOMSON        MOSUNNY   78  70  76 CALM      30.06S
AUGUSTA-BUSH   CLOUDY    72  68  87 SE8       30.01R
AUGUSTA-DANIEL MOSUNNY   74  66  76 SE7       30.03R
SWAINSBORO     FAIR      79  68  69 SE8       30.01R
VIDALIA        MOSUNNY   81  68  65 S7        30.00R
EASTMAN        FAIR      79  72  80 SE6       30.01R
HAZLEHURST     FAIR      82  70  66 S7        29.98R
ALMA           MOSUNNY   80  70  71 SE9       29.98R
WAYCROSS       SUNNY     82  72  71 SE9       29.98S
JESUP          FAIR      84  73  70 SE3       30.00S HX  91
BAXLEY         FAIR      81  72  74 S6        29.99R
BRUNSWICK      SUNNY     81  68  65 SE8       30.01R
SAINT SIMONS   SUNNY     76  73  91 E8        30.00S

$$

SCZ027-028-034-036>038-045-046-048>050-GAZ119-141-301500-
...LAKE AND SUPPLEMENTAL COASTAL OBSERVATIONS...

STATION/POSITION TIME  TEMP    WIND        PRES    WAVE   SWELL
                       AIR SEA DIR/SP/G            HT/PER HT/PER/DIR
                 (UTC) (F)     (DEG/KT/KT) (MB)    (FT/S) (FT/S/D)
WINYAH BAY       1300   70      80/ 12     1017.0S
LAKE MURRAY      1300   67     130/  5/  8 1015.9R
ACE BASIN NERRS  1300   76     130/  2     1017.0
FORT PULASKI     1400   76 72  130/  7/ 10 1016.9R
SAPELO ISLAND    1300   74     140/  3     1016.0S

$$

ANZ835-935-AMZ111-154-330-350-352-354-370-450-454-472-301500-
...C-MAN AND BUOY OBSERVATIONS...

STATION/POSITION TIME  TEMP    WIND        PRES    WAVE   SWELL
                       AIR SEA DIR/SP/G            HT/PER HT/PER/DIR
                 (UTC) (F)     (DEG/KT/KT) (MB)    (FT/S) (FT/S/D)
BUOY 41004       1250   74 72   90/  6/  6 1016.6    2/ 9   2/ 9
BUOY 41008       NOT AVBL
FOLLY BEACH CMAN 1400   73     110/  7/  8 1017.1R
CAPERS NEARSHORE 1308   71 71  100/  8/ 10 1016.7R
FRIPP NEARSHORE  1408   72 72  150/  4/  6 1016.2R


STATION/POSITION TIME  TEMP    WIND        PRES    WAVE   SWELL
                       AIR SEA DIR/SP/G            HT/PER HT/PER/DIR
                 (UTC) (F)     (DEG/KT/KT) (MB)    (FT/S) (FT/S/D)
5E ST. MARYS GA  1321      72                N/A     1/10
FRYING PAN BUOY  1400   70 70   60/ 17/ 21 1018.1F
BUOY 41025       1250   60 74   30/ 16/ 19 1019.9    5/11   3/ 70/11
CAPE LOOKOUT NC  1400   61      50/  8/  9 1020.2R
BUOY 41002       1250   71 71   60/  8/ 10 1017.7    3/11   3/ 30/11
BUOY 41010       1320   76 77  120/  8/  8 1016.9R
ST AUGUSTINE FL  1400   73 71  140/  7/  8 1016.8R


$$




USA.gov is the U.S. government's official web portal to all federal, state and local government web resources and services.